Location: Aliang
(14.2833°N, 120.8833°E)
Time: 23:44:21
(UTC+00:00)

Daily predictions for brighter satellites

Satellite Brightness Start Highest point End
(mag) Time Altitude Azimuth Time Altitude Azimuth Time Altitude Azimuth
Cosmos 2333 Rocket 4.4 12:21:31 10° WSW 12:24:42 21° W 12:24:42 21° W
Cosmos 2360 Rocket 4.3 12:22:25 10° SW 12:24:40 22° WSW 12:24:40 22° WSW
CZ-3 R/B 3.8 19:30:18 47° NW 19:35:21 55° N 19:44:48 10° E
Cosmos 1697 Rocket 3.2 20:00:02 53° NE 20:00:42 56° ENE 20:06:12 10° SSE
CZ-3C R/B 2.5 20:08:13 32° NE 20:08:13 32° NE 20:12:45 10° ENE
Cosmos 1777 Rocket 4.1 20:13:10 62° S 20:13:10 62° S 20:17:28 10° S
Cosmos 1634 Rocket 3.8 20:10:51 56° N 20:12:19 88° W 20:18:34 10° S
SL-16 R/B 2.4 20:06:26 10° S 20:12:39 76° WSW 20:13:24 67° NW
Stardust Del rocket 4.4 20:19:48 37° SE 20:19:48 37° SE 20:22:03 10° E
IRS-1D 4.5 20:16:50 10° NNE 20:21:43 47° ESE 20:26:42 10° S
Centaur AC-119 3.7 20:22:47 38° N 20:22:47 38° N 20:27:09 10° NE
Cosmos 1782 3.7 20:25:20 38° SSE 20:25:20 38° SSE 20:27:39 10° S
Cosmos 2279 Rocket 4.0 20:21:33 15° N 20:26:50 80° E 20:33:04 10° S
Atlas Centaur 2 3.3 20:30:18 37° WSW 20:32:54 49° SSW 20:40:45 10° SE
USA 238 DEB 4.1 20:36:12 31° NW 20:40:25 65° WSW 20:48:32 10° SSE
USA 238 4.1 20:36:14 30° NW 20:40:32 66° WSW 20:48:40 10° SSE
Atlas 2A Centaur Rocket 3.5 20:41:45 17° NNE 20:41:45 17° NNE 20:42:54 10° NE
Cosmos 990 Rocket 3.9 20:45:45 25° NNW 20:48:51 76° WSW 20:54:03 10° S
Cosmos 2098 Rocket 3.5 20:43:26 11° N 20:48:57 75° W 20:54:17 10° S
GPS 2-12 Rocket1 2.9 20:48:40 44° WNW 20:50:05 86° SSW 20:54:40 10° ESE
GPS 2-15 Rocket1 3.0 20:51:29 32° WSW 20:53:33 86° SSE 20:58:06 10° ENE
UNK 3.8 20:50:36 10° S 20:55:05 56° WSW 20:57:50 23° NNW
IUS-1 SRM-2 2.8 20:56:57 27° W 20:59:20 51° SSW 21:01:54 10° SE
CZ-4 R/B 3.6 20:57:00 10° N 21:01:33 66° WNW 21:06:08 10° SSW
NOAA 12 4.0 20:57:19 10° N 21:02:30 67° WNW 21:07:40 10° SSW
Cosmos 1980 Rocket 2.1 20:57:40 10° NNW 21:03:12 89° WSW 21:08:47 10° SSE
BREEZE-M DEB (TANK) 2.2 21:02:54 23° WSW 21:04:33 61° NW 21:10:33 10° NE
Cosmos 2142 Rocket 4.5 21:00:43 10° NNW 21:06:46 59° W 21:12:46 10° S
Cosmos 1092 Rocket 4.1 21:00:59 10° S 21:07:18 83° E 21:13:34 10° N
Cosmos 1933 3.2 21:04:54 10° N 21:08:41 79° E 21:12:28 10° S
Cosmos 1484 Rocket 3.5 21:12:32 10° NNE 21:15:46 47° E 21:18:58 10° S
Cosmos 1606 Rocket 3.5 21:12:32 10° N 21:16:55 89° E 21:21:16 10° S
ARIANE 3 DEB 4.2 21:18:33 10° SW 21:20:02 15° S 21:21:42 10° SE
Cosmos 158 Rocket 4.1 21:14:43 10° SSW 21:20:03 88° ESE 21:25:24 10° NNE
Cosmos 1833 4.2 21:14:40 10° SSW 21:20:17 90° NW 21:25:55 10° NNE
COSMOS 2455 3.7 21:17:43 10° N 21:23:32 50° ENE 21:29:18 10° SE
DELTA-4 R/B 3.9 21:09:28 10° W 21:26:30 75° S 21:30:24 10° E
ATLAS 2AS CENTAUR R/B 2.8 21:19:57 10° SSW 21:27:13 82° WNW 21:34:17 10° NNE
Aurora 2 Rocket 3.1 21:24:36 10° WSW 21:30:37 70° SSE 21:34:57 10° ENE
USA 267 3.9 21:24:46 10° NE 21:31:11 61° SE 21:37:35 10° SSW
ISS -2.5 21:32:14 10° SSW 21:35:27 46° SE 21:38:41 10° NE
SL-8 R/B 4.2 21:36:07 10° NNW 21:40:46 56° NE 21:45:25 10° SE
Cosmos 1626 Rocket 3.6 21:37:25 10° S 21:41:51 89° WNW 21:46:15 10° N
Cosmos 1726 Rocket 3.4 21:37:57 10° NNW 21:42:03 58° W 21:46:03 10° S
SL-24 R/B - RUBIN 2 3.9 21:40:23 10° NW 21:44:39 51° WSW 21:49:14 10° S
Meteor 2-20 4.5 21:42:58 10° N 21:49:03 86° W 21:55:07 10° S
SL-08 ROCKET BODY 4.4 21:44:35 10° S 21:50:30 90° WNW 21:56:21 10° N
Centaur AC-146 4.3 21:14:51 13° WNW 21:55:16 74° SSW 22:00:09 10° ESE
